Bellaire, MI

7:12 PM EDT on September 24, 2017 (GMT -0400)
Antrim County

Weather History for KACB - September, 2013

Change the Weather History Date:

Wednesday, September 18, 2013

  Actual Average (KCVX) Record (KCVX)
Temperature  
Mean Temperature 58 °F -  
Max Temperature 74 °F 69 °F 82 °F (2007)
Min Temperature 42 °F 52 °F 44 °F (2011)
Degree Days  
Heating Degree Days 7    
Growing Degree Days 8 (Base 50)    
Moisture  
Dew Point 50 °F    
Average Humidity 71    
Maximum Humidity 97    
Minimum Humidity 51    
Precipitation  
Precipitation 0.00 in - - ()
Sea Level Pressure  
Sea Level Pressure 30.05 in    
Wind  
Wind Speed 3 mph (South)    
Max Wind Speed 9 mph    
Max Gust Speed -    
Visibility 10 miles    
Events Rain    
Averages and records for this station are not official NWS values.
T = Trace of Precipitation, MM = Missing Value Source: NWS Daily Summary

Daily Weather History Graph

Daily Weather History Graph

Search for Another Location

Airport or City:

Trip Planner

Search our weather history database for the weather conditions in past years. The results will help you decide how hot, cold, wet, or windy it might be!

Date:

Astronomy

Sep. 18, 2013 Rise Set
Actual Time 7:23 AM EDT 7:45 PM EDT
Civil Twilight 6:53 AM EDT 8:14 PM EDT
Nautical Twilight 6:19 AM EDT 8:49 PM EDT
Astronomical Twilight 5:43 AM EDT 9:24 PM EDT
Moon 7:07 PM EDT (9/18) 6:24 AM EDT (9/18)
Length of Visible Light 13h 20m
Length of Day
12h 22m
Waxing Gibbous, 99% of the Moon is Illuminated
Sep 18
Waxing Gibbous
Sep 19
Full
Sep 26
Last Quarter
Oct 4
New
Oct 11
First Quarter

Hourly Weather History & Observations

Time (EDT) Temp. Dew Point Humidity Pressure Visibility Wind Dir Wind Speed Gust Speed Precip Events Conditions
12:12 AM 42.8 °F 41.9 °F 97% 30.18 in 10.0 mi Calm Calm - N/A   Clear
12:33 AM 43.2 °F 42.3 °F 97% 30.18 in 10.0 mi Calm Calm - N/A   Clear
12:52 AM 42.3 °F 41.4 °F 97% 30.17 in 10.0 mi Calm Calm - N/A   Clear
1:12 AM 42.8 °F 41.9 °F 97% 30.17 in 10.0 mi Calm Calm - N/A   Clear
1:33 AM 42.8 °F 41.9 °F 97% 30.17 in 10.0 mi Calm Calm - N/A   Clear
1:52 AM 43.3 °F 42.4 °F 97% 30.16 in 10.0 mi Calm Calm - N/A   Clear
2:12 AM 42.6 °F 41.7 °F 97% 30.16 in 10.0 mi Calm Calm - N/A   Clear
2:33 AM 42.6 °F 41.7 °F 97% 30.15 in 10.0 mi Calm Calm - N/A   Clear
2:52 AM 43.0 °F 42.1 °F 97% 30.15 in 10.0 mi Calm Calm - N/A   Clear
3:12 AM 43.3 °F 42.6 °F 97% 30.15 in 10.0 mi Calm Calm - N/A   Clear
3:33 AM 43.2 °F 42.3 °F 97% 30.14 in 10.0 mi Calm Calm - N/A   Clear
3:52 AM 43.5 °F 42.6 °F 97% 30.13 in 10.0 mi Calm Calm - N/A   Clear
4:12 AM 44.1 °F 43.2 °F 97% 30.13 in 7.0 mi Calm Calm - N/A   Clear
4:33 AM 42.8 °F 41.9 °F 97% 30.13 in 5.0 mi Calm Calm - N/A   Clear
4:52 AM 43.9 °F 43.2 °F 97% 30.13 in 4.0 mi Calm Calm - N/A   Clear
5:13 AM 45.1 °F 44.2 °F 97% 30.12 in 10.0 mi Calm Calm - N/A   Clear
5:33 AM 47.3 °F 46.4 °F 97% 30.12 in 10.0 mi Calm Calm - N/A   Clear
5:52 AM 50.5 °F 47.8 °F 90% 30.12 in 10.0 mi SSW 3.5 mph - N/A   Clear
6:13 AM 52.7 °F 47.3 °F 82% 30.12 in 10.0 mi South 3.5 mph - N/A   Clear
6:33 AM 51.1 °F 47.3 °F 87% 30.12 in 10.0 mi South 3.5 mph - N/A   Clear
6:52 AM 52.9 °F 46.9 °F 80% 30.12 in 10.0 mi South 3.5 mph - N/A   Clear
7:13 AM 53.6 °F 46.8 °F 78% 30.12 in 10.0 mi South 4.6 mph - N/A   Clear
7:33 AM 54.1 °F 46.4 °F 75% 30.12 in 10.0 mi South 4.6 mph - N/A   Clear
7:52 AM 54.0 °F 46.6 °F 76% 30.13 in 10.0 mi South 4.6 mph - N/A   Clear
8:13 AM 54.3 °F 46.8 °F 76% 30.12 in 10.0 mi South 4.6 mph - N/A   Clear
8:33 AM 54.7 °F 46.9 °F 75% 30.12 in 10.0 mi Calm Calm - N/A   Clear
8:52 AM 56.5 °F 46.9 °F 70% 30.11 in 10.0 mi SSW 4.6 mph - N/A   Clear
9:13 AM 57.9 °F 46.9 °F 67% 30.11 in 10.0 mi South 3.5 mph - N/A   Clear
9:33 AM 59.9 °F 46.6 °F 61% 30.10 in 10.0 mi South 4.6 mph - N/A   Clear
9:52 AM 60.4 °F 46.8 °F 61% 30.10 in 10.0 mi SSW 5.8 mph - N/A   Clear
10:13 AM 62.2 °F 47.3 °F 58% 30.10 in 10.0 mi South 4.6 mph - N/A   Clear
10:32 AM 64.0 °F 48.0 °F 56% 30.09 in 10.0 mi South 5.8 mph - N/A   Scattered Clouds
10:52 AM 65.5 °F 49.3 °F 56% 30.09 in 10.0 mi South 4.6 mph - N/A   Scattered Clouds
11:13 AM 67.6 °F 49.8 °F 53% 30.08 in 10.0 mi SSE 8.1 mph - N/A   Scattered Clouds
11:32 AM 68.9 °F 50.2 °F 51% 30.07 in 10.0 mi South 9.2 mph - N/A   Mostly Cloudy
11:52 AM 69.8 °F 51.1 °F 51% 30.06 in 10.0 mi South 6.9 mph - N/A   Mostly Cloudy
12:13 PM 69.4 °F 51.6 °F 53% 30.06 in 10.0 mi South 8.1 mph - N/A   Overcast
12:32 PM 68.9 °F 52.7 °F 56% 30.06 in 10.0 mi South 5.8 mph - N/A   Overcast
12:53 PM 67.3 °F 56.5 °F 68% 30.05 in 7.0 mi Calm Calm - N/A Rain Light Rain
1:13 PM 70.0 °F 55.9 °F 61% 30.05 in 10.0 mi South 5.8 mph - N/A   Overcast
1:32 PM 70.7 °F 54.3 °F 56% 30.04 in 10.0 mi South 6.9 mph - N/A   Overcast
1:53 PM 70.7 °F 53.6 °F 55% 30.03 in 10.0 mi South 5.8 mph - N/A   Mostly Cloudy
2:13 PM 70.9 °F 52.5 °F 52% 30.03 in 10.0 mi South 6.9 mph - N/A   Mostly Cloudy
2:32 PM 70.9 °F 53.2 °F 54% 30.02 in 10.0 mi South 9.2 mph - N/A   Scattered Clouds
2:53 PM 70.7 °F 53.4 °F 54% 30.01 in 10.0 mi South 6.9 mph - N/A   Scattered Clouds
3:13 PM 70.9 °F 55.6 °F 58% 30.00 in 10.0 mi SSE 9.2 mph - N/A   Mostly Cloudy
3:32 PM 71.2 °F 55.0 °F 56% 30.00 in 10.0 mi South 5.8 mph - N/A   Mostly Cloudy
3:53 PM 72.5 °F 54.1 °F 52% 29.99 in 10.0 mi South 5.8 mph - N/A   Overcast
4:13 PM 72.5 °F 54.5 °F 53% 29.98 in 10.0 mi South 6.9 mph - N/A   Overcast
4:32 PM 73.0 °F 54.7 °F 52% 29.98 in 10.0 mi South 8.1 mph - N/A   Overcast
4:53 PM 72.9 °F 54.1 °F 52% 29.98 in 10.0 mi South 9.2 mph - N/A   Overcast
5:13 PM 72.9 °F 53.6 °F 51% 29.97 in 10.0 mi South 6.9 mph - N/A   Mostly Cloudy
5:33 PM 73.4 °F 54.5 °F 51% 29.96 in 10.0 mi South 6.9 mph - N/A   Mostly Cloudy
5:53 PM 74.3 °F 54.9 °F 51% 29.96 in 10.0 mi South 9.2 mph - N/A   Scattered Clouds
6:12 PM 74.3 °F 55.4 °F 52% 29.95 in 10.0 mi South 8.1 mph - N/A   Scattered Clouds
6:33 PM 73.4 °F 56.3 °F 55% 29.95 in 10.0 mi South 5.8 mph - N/A   Mostly Cloudy
6:53 PM 72.7 °F 56.7 °F 57% 29.95 in 10.0 mi South 5.8 mph - N/A   Scattered Clouds
7:12 PM 70.9 °F 56.8 °F 61% 29.95 in 10.0 mi South 5.8 mph - N/A   Scattered Clouds
7:33 PM 70.0 °F 57.6 °F 65% 29.95 in 10.0 mi Calm Calm - N/A   Mostly Cloudy
7:53 PM 67.8 °F 59.0 °F 73% 29.95 in 10.0 mi Calm Calm - N/A   Mostly Cloudy
8:13 PM 66.6 °F 59.2 °F 77% 29.95 in 10.0 mi Calm Calm - N/A   Overcast
8:33 PM 66.9 °F 58.8 °F 75% 29.95 in 10.0 mi Calm Calm - N/A   Overcast
8:53 PM 67.6 °F 58.1 °F 71% 29.95 in 10.0 mi SSE 3.5 mph - N/A   Overcast
9:12 PM 68.9 °F 56.7 °F 65% 29.95 in 10.0 mi South 4.6 mph - N/A   Overcast
9:33 PM 68.9 °F 57.2 °F 66% 29.96 in 10.0 mi South 5.8 mph - N/A   Overcast
9:53 PM 69.1 °F 56.7 °F 65% 29.95 in 10.0 mi South 4.6 mph - N/A   Mostly Cloudy
10:12 PM 68.9 °F 56.5 °F 65% 29.95 in 10.0 mi South 4.6 mph - N/A   Scattered Clouds
10:33 PM 68.0 °F 56.7 °F 67% 29.95 in 10.0 mi Calm Calm - N/A   Mostly Cloudy
10:53 PM 68.4 °F 55.9 °F 64% 29.95 in 10.0 mi South 5.8 mph - N/A   Mostly Cloudy
11:13 PM 68.5 °F 55.6 °F 63% 29.96 in 10.0 mi South 3.5 mph - N/A   Scattered Clouds
11:33 PM 68.2 °F 55.8 °F 64% 29.95 in 10.0 mi SSW 3.5 mph - N/A   Scattered Clouds
11:52 PM 68.0 °F 55.4 °F 64% 29.95 in 10.0 mi SW 3.5 mph - N/A   Clear